This is the latest recevied weather packets stored in our database for station/object KB2M. If no packets are shown the sender has not sent any weather packets the latest 10 day(s).
| Time | Temp. | Humidity | Pressure | Rain* | Wind** | Luminosity | Snow |
|---|---|---|---|---|---|---|---|
| 1777585729 | 23.89° C | 92% | 1010.4 hPa | 2.03 mm | - | - | - |
| 1777585129 | 23.89° C | 91% | 1010.1 hPa | 2.03 mm | - | - | - |
| 1777584529 | 24.44° C | 90% | 1010.1 hPa | 1.27 mm | - | - | - |
| 1777583928 | 24.44° C | 90% | 1010.1 hPa | 0.25 mm | - | - | - |
| 1777583328 | 25° C | 86% | 1010.4 hPa | 0 mm | - | - | - |
| 1777582727 | 27.22° C | 71% | 1010.1 hPa | 0 mm | - | - | - |
| 1777582127 | 26.67° C | 72% | 1010.1 hPa | 0 mm | - | - | - |
| 1777581526 | 26.67° C | 74% | 1010.1 hPa | 0.25 mm | - | - | - |
| 1777580926 | 26.67° C | 75% | 1010.4 hPa | 0.25 mm | - | - | - |
| 1777580325 | 27.22° C | 73% | 1010.4 hPa | 1.52 mm | - | - | - |
| 1777579724 | 26.67° C | 76% | 1010.4 hPa | 1.52 mm | - | - | - |
| 1777579124 | 26.11° C | 77% | 1010.4 hPa | 1.52 mm | - | - | - |
| 1777578523 | 26.11° C | 73% | 1010.4 hPa | 1.52 mm | - | - | - |
| 1777577923 | 25.56° C | 73% | 1010.8 hPa | 1.27 mm | - | - | - |
| 1777577322 | 25.56° C | 79% | 1011.1 hPa | 1.27 mm | - | - | - |
| 1777576721 | 26.67° C | 73% | 1010.8 hPa | 0 mm | - | - | - |
| 1777576121 | 29.44° C | 62% | 1010.4 hPa | 0 mm | - | - | - |
| 1777575520 | 30° C | 52% | 1010.4 hPa | 0 mm | - | - | - |
| 1777574920 | 30° C | 51% | 1010.8 hPa | 0 mm | - | - | - |
| 1777574319 | 29.44° C | 53% | 1011.1 hPa | 0 mm | - | - | - |
| 1777573719 | 29.44° C | 55% | 1011.1 hPa | 0 mm | - | - | - |
| 1777573118 | 28.89° C | 56% | 1011.1 hPa | 0 mm | - | - | - |
| 1777572518 | 28.89° C | 56% | 1011.5 hPa | 0 mm | - | - | - |
| 1777571917 | 28.89° C | 55% | 1011.5 hPa | 0 mm | - | - | - |
| 1777571317 | 28.89° C | 55% | 1011.8 hPa | 0 mm | - | - | - |
* Rain latest hour (hover to see other rain measurements)
** Current wind speed in m/s (hover to see current wind gust speed)